contact:dominique.lefevre@mio.osupytheas.fr, maurice.libes@osupytheas.fr, didier.mallarino@osupytheas.fr
Project:EMSO http://www.emso-fr.org/EMSO-France
Depth: 2436.0 m
Title:EMSO Ligure Ouest : Data MII capteur MICROCAT
DateTime_Computer,Latitude,Longitude,Temperature,Conductivity,Pressure,DateTime_Instrument
DateTime_Computer,Latitude,Longitude,degC,S m-1,dbar,DateTime_Instrument
2023-03-18T00:00:58Z,42.805,6.029,13.3021,4.60098,2470.703,2023-3-18T02:03:39Z
2023-03-18T00:04:01Z,42.805,6.029,13.3022,4.60092,2470.67,2023-3-18T02:06:42Z
2023-03-18T00:07:04Z,42.805,6.029,13.3024,4.60086,2470.707,2023-3-18T02:09:45Z
2023-03-18T00:10:07Z,42.805,6.029,13.3024,4.60082,2470.693,2023-3-18T02:12:48Z
2023-03-18T00:13:10Z,42.805,6.029,13.3023,4.60093,2470.67,2023-3-18T02:15:51Z
2023-03-18T00:16:13Z,42.805,6.029,13.3019,4.60084,2470.73,2023-3-18T02:18:54Z
2023-03-18T00:19:16Z,42.805,6.029,13.3020,4.60086,2470.693,2023-3-18T02:21:57Z
2023-03-18T00:22:19Z,42.805,6.029,13.3022,4.60087,2470.67,2023-3-18T02:25:00Z
2023-03-18T00:25:22Z,42.805,6.029,13.3020,4.60085,2470.707,2023-3-18T02:28:03Z
2023-03-18T00:28:25Z,42.805,6.029,13.3022,4.60091,2470.693,2023-3-18T02:31:06Z
2023-03-18T00:31:29Z,42.805,6.029,13.3019,4.60084,2470.717,2023-3-18T02:34:10Z
2023-03-18T00:34:32Z,42.805,6.029,13.3021,4.60089,2470.693,2023-3-18T02:37:13Z
2023-03-18T00:37:35Z,42.805,6.029,13.3023,4.60089,2470.693,2023-3-18T02:40:16Z
2023-03-18T00:40:38Z,42.805,6.029,13.3023,4.60087,2470.73,2023-3-18T02:43:19Z
2023-03-18T00:43:41Z,42.805,6.029,13.3023,4.60087,2470.717,2023-3-18T02:46:22Z
2023-03-18T00:46:44Z,42.805,6.029,13.3022,4.60091,2470.693,2023-3-18T02:49:25Z
2023-03-18T00:49:47Z,42.805,6.029,13.3019,4.60087,2470.707,2023-3-18T02:52:28Z
2023-03-18T00:52:50Z,42.805,6.029,13.3025,4.60089,2470.693,2023-3-18T02:55:31Z
2023-03-18T00:55:53Z,42.805,6.029,13.3021,4.60093,2470.717,2023-3-18T02:58:34Z
2023-03-18T00:58:56Z,42.805,6.029,13.3022,4.60087,2470.717,2023-3-18T03:01:37Z
2023-03-18T01:01:59Z,42.805,6.029,13.3020,4.60087,2470.73,2023-3-18T03:04:40Z
2023-03-18T01:05:02Z,42.805,6.029,13.3022,4.60094,2470.763,2023-3-18T03:07:43Z
2023-03-18T01:08:06Z,42.805,6.029,13.3024,4.60092,2470.74,2023-3-18T03:10:47Z
2023-03-18T01:11:09Z,42.805,6.029,13.3019,4.60090,2470.754,2023-3-18T03:13:50Z
2023-03-18T01:14:12Z,42.805,6.029,13.3019,4.60084,2470.74,2023-3-18T03:16:53Z
2023-03-18T01:17:15Z,42.805,6.029,13.3024,4.60093,2470.74,2023-3-18T03:19:56Z
2023-03-18T01:20:18Z,42.805,6.029,13.3021,4.60084,2470.754,2023-3-18T03:22:59Z
2023-03-18T01:23:21Z,42.805,6.029,13.3025,4.60087,2470.777,2023-3-18T03:26:02Z
2023-03-18T01:26:24Z,42.805,6.029,13.3022,4.60090,2470.74,2023-3-18T03:29:05Z
2023-03-18T01:29:27Z,42.805,6.029,13.3025,4.60089,2470.74,2023-3-18T03:32:08Z
2023-03-18T01:32:30Z,42.805,6.029,13.3021,4.60093,2470.726,2023-3-18T03:35:11Z
2023-03-18T01:35:33Z,42.805,6.029,13.3019,4.60085,2470.763,2023-3-18T03:38:14Z
2023-03-18T01:38:36Z,42.805,6.029,13.3021,4.60090,2470.763,2023-3-18T03:41:17Z
2023-03-18T01:41:39Z,42.805,6.029,13.3023,4.60094,2470.726,2023-3-18T03:44:20Z
2023-03-18T01:44:42Z,42.805,6.029,13.3022,4.60084,2470.74,2023-3-18T03:47:23Z
2023-03-18T01:47:46Z,42.805,6.029,13.3021,4.60093,2470.8,2023-3-18T03:50:27Z
2023-03-18T01:50:49Z,42.805,6.029,13.3023,4.60090,2470.754,2023-3-18T03:53:30Z
2023-03-18T01:53:52Z,42.805,6.029,13.3018,4.60092,2470.74,2023-3-18T03:56:33Z
2023-03-18T01:56:55Z,42.805,6.029,13.3022,4.60097,2470.74,2023-3-18T03:59:36Z
2023-03-18T01:59:58Z,42.805,6.029,13.3023,4.60097,2470.787,2023-3-18T04:02:39Z
2023-03-18T02:03:01Z,42.805,6.029,13.3025,4.60097,2470.81,2023-3-18T04:05:42Z
2023-03-18T02:06:04Z,42.805,6.029,13.3019,4.60087,2470.8,2023-3-18T04:08:45Z
2023-03-18T02:09:07Z,42.805,6.029,13.3023,4.60092,2470.824,2023-3-18T04:11:48Z
2023-03-18T02:12:10Z,42.805,6.029,13.3027,4.60092,2470.74,2023-3-18T04:14:51Z
2023-03-18T02:15:13Z,42.805,6.029,13.3022,4.60096,2470.81,2023-3-18T04:17:54Z
2023-03-18T02:18:16Z,42.805,6.029,13.3030,4.60097,2470.81,2023-3-18T04:20:57Z
2023-03-18T02:21:19Z,42.805,6.029,13.3026,4.60097,2470.787,2023-3-18T04:24:00Z
2023-03-18T02:24:23Z,42.805,6.029,13.3024,4.60090,2470.787,2023-3-18T04:27:04Z
2023-03-18T02:27:26Z,42.805,6.029,13.3020,4.60087,2470.787,2023-3-18T04:30:07Z
2023-03-18T02:30:29Z,42.805,6.029,13.3029,4.60096,2470.81,2023-3-18T04:33:10Z
2023-03-18T02:33:32Z,42.805,6.029,13.3024,4.60092,2470.824,2023-3-18T04:36:13Z
2023-03-18T02:36:35Z,42.805,6.029,13.3024,4.60094,2470.847,2023-3-18T04:39:16Z
2023-03-18T02:39:38Z,42.805,6.029,13.3023,4.60092,2470.8,2023-3-18T04:42:19Z
2023-03-18T02:42:41Z,42.805,6.029,13.3024,4.60092,2470.833,2023-3-18T04:45:22Z
2023-03-18T02:45:44Z,42.805,6.029,13.3023,4.60104,2470.787,2023-3-18T04:48:25Z
2023-03-18T02:48:47Z,42.805,6.029,13.3019,4.60096,2470.833,2023-3-18T04:51:28Z
2023-03-18T02:51:50Z,42.805,6.029,13.3023,4.60089,2470.796,2023-3-18T04:54:31Z
2023-03-18T02:54:53Z,42.805,6.029,13.3024,4.60087,2470.833,2023-3-18T04:57:34Z
2023-03-18T02:57:56Z,42.805,6.029,13.3024,4.60092,2470.8,2023-3-18T05:00:37Z
2023-03-18T03:00:59Z,42.805,6.029,13.3021,4.60089,2470.81,2023-3-18T05:03:40Z
2023-03-18T03:04:03Z,42.805,6.029,13.3013,4.60091,2470.81,2023-3-18T05:06:44Z
2023-03-18T03:07:06Z,42.805,6.029,13.3019,4.60086,2470.824,2023-3-18T05:09:47Z
2023-03-18T03:10:09Z,42.805,6.029,13.3021,4.60097,2470.847,2023-3-18T05:12:50Z
2023-03-18T03:13:12Z,42.805,6.029,13.3019,4.60082,2470.81,2023-3-18T05:15:53Z
2023-03-18T03:16:15Z,42.805,6.029,13.3030,4.60097,2470.843,2023-3-18T05:18:56Z
2023-03-18T03:19:18Z,42.805,6.029,13.3026,4.60098,2470.871,2023-3-18T05:21:59Z
2023-03-18T03:22:21Z,42.805,6.029,13.3022,4.60096,2470.871,2023-3-18T05:25:02Z
2023-03-18T03:25:24Z,42.805,6.029,13.3025,4.60097,2470.833,2023-3-18T05:28:05Z
2023-03-18T03:28:27Z,42.805,6.029,13.3022,4.60089,2470.857,2023-3-18T05:31:08Z
2023-03-18T03:31:30Z,42.805,6.029,13.3023,4.60098,2470.847,2023-3-18T05:34:11Z
2023-03-18T03:34:33Z,42.805,6.029,13.3024,4.60093,2470.833,2023-3-18T05:37:14Z
2023-03-18T03:37:36Z,42.805,6.029,13.3028,4.60095,2470.857,2023-3-18T05:40:17Z
2023-03-18T03:40:39Z,42.805,6.029,13.3023,4.60096,2470.871,2023-3-18T05:43:21Z
2023-03-18T03:43:43Z,42.805,6.029,13.3031,4.60096,2470.833,2023-3-18T05:46:24Z
2023-03-18T03:46:46Z,42.805,6.029,13.3026,4.60093,2470.847,2023-3-18T05:49:27Z
2023-03-18T03:49:49Z,42.805,6.029,13.3019,4.60093,2470.857,2023-3-18T05:52:30Z
2023-03-18T03:52:52Z,42.805,6.029,13.3027,4.60094,2470.857,2023-3-18T05:55:33Z
2023-03-18T03:55:55Z,42.805,6.029,13.3019,4.60091,2470.833,2023-3-18T05:58:36Z
2023-03-18T03:58:58Z,42.805,6.029,13.3021,4.60097,2470.871,2023-3-18T06:01:39Z
2023-03-18T04:02:01Z,42.805,6.029,13.3026,4.60094,2470.847,2023-3-18T06:04:42Z
2023-03-18T04:05:04Z,42.805,6.029,13.3024,4.60098,2470.88,2023-3-18T06:07:45Z
2023-03-18T04:08:07Z,42.805,6.029,13.3031,4.60094,2470.857,2023-3-18T06:10:48Z
2023-03-18T04:11:10Z,42.805,6.029,13.3028,4.60097,2470.88,2023-3-18T06:13:51Z
2023-03-18T04:14:13Z,42.805,6.029,13.3018,4.60089,2470.88,2023-3-18T06:16:54Z
2023-03-18T04:17:16Z,42.805,6.029,13.3021,4.60093,2470.904,2023-3-18T06:19:57Z
2023-03-18T04:20:19Z,42.805,6.029,13.3026,4.60096,2470.871,2023-3-18T06:23:01Z
2023-03-18T04:23:23Z,42.805,6.029,13.3029,4.60095,2470.857,2023-3-18T06:26:04Z
2023-03-18T04:26:26Z,42.805,6.029,13.3023,4.60092,2470.894,2023-3-18T06:29:07Z
2023-03-18T04:29:29Z,42.805,6.029,13.3024,4.60092,2470.871,2023-3-18T06:32:10Z
2023-03-18T04:32:32Z,42.805,6.029,13.3022,4.60097,2470.857,2023-3-18T06:35:13Z
2023-03-18T04:35:35Z,42.805,6.029,13.3022,4.60093,2470.904,2023-3-18T06:38:16Z
2023-03-18T04:38:38Z,42.805,6.029,13.3024,4.60091,2470.88,2023-3-18T06:41:19Z
2023-03-18T04:41:41Z,42.805,6.029,13.3022,4.60086,2470.88,2023-3-18T06:44:22Z
2023-03-18T04:44:44Z,42.805,6.029,13.3024,4.60094,2470.871,2023-3-18T06:47:25Z
2023-03-18T04:47:47Z,42.805,6.029,13.3031,4.60104,2470.857,2023-3-18T06:50:28Z
2023-03-18T04:50:50Z,42.805,6.029,13.3026,4.60087,2470.88,2023-3-18T06:53:31Z
2023-03-18T04:53:53Z,42.805,6.029,13.3027,4.60087,2470.847,2023-3-18T06:56:34Z
2023-03-18T04:56:56Z,42.805,6.029,13.3026,4.60087,2470.88,2023-3-18T06:59:38Z
2023-03-18T05:00:00Z,42.805,6.029,13.3024,4.60091,2470.82,2023-3-18T07:02:41Z
2023-03-18T05:03:03Z,42.805,6.029,13.3021,4.60087,2470.857,2023-3-18T07:05:44Z
2023-03-18T05:06:06Z,42.805,6.029,13.3025,4.60090,2470.88,2023-3-18T07:08:47Z
2023-03-18T05:09:09Z,42.805,6.029,13.3022,4.60087,2470.857,2023-3-18T07:11:50Z
2023-03-18T05:12:12Z,42.805,6.029,13.3028,4.60095,2470.88,2023-3-18T07:14:53Z
2023-03-18T05:15:15Z,42.805,6.029,13.3023,4.60094,2470.89,2023-3-18T07:17:56Z
2023-03-18T05:18:18Z,42.805,6.029,13.3024,4.60098,2470.894,2023-3-18T07:20:59Z
2023-03-18T05:21:21Z,42.805,6.029,13.3025,4.60095,2470.871,2023-3-18T07:24:02Z
2023-03-18T05:24:24Z,42.805,6.029,13.3024,4.60088,2470.88,2023-3-18T07:27:05Z
2023-03-18T05:27:27Z,42.805,6.029,13.3024,4.60095,2470.857,2023-3-18T07:30:08Z
2023-03-18T05:30:30Z,42.805,6.029,13.3032,4.60110,2470.857,2023-3-18T07:33:11Z
2023-03-18T05:33:33Z,42.805,6.029,13.3026,4.60092,2470.857,2023-3-18T07:36:15Z
2023-03-18T05:36:37Z,42.805,6.029,13.3019,4.60094,2470.894,2023-3-18T07:39:18Z
2023-03-18T05:39:40Z,42.805,6.029,13.3027,4.60092,2470.917,2023-3-18T07:42:21Z
2023-03-18T05:42:43Z,42.805,6.029,13.3020,4.60099,2470.904,2023-3-18T07:45:24Z
2023-03-18T05:45:46Z,42.805,6.029,13.3024,4.60090,2470.904,2023-3-18T07:48:27Z
2023-03-18T05:48:49Z,42.805,6.029,13.3024,4.60089,2470.847,2023-3-18T07:51:30Z
2023-03-18T05:51:52Z,42.805,6.029,13.3023,4.60087,2470.88,2023-3-18T07:54:33Z
2023-03-18T05:54:55Z,42.805,6.029,13.3024,4.60091,2470.904,2023-3-18T07:57:36Z
2023-03-18T05:57:58Z,42.805,6.029,13.3024,4.60092,2470.88,2023-3-18T08:00:39Z
2023-03-18T06:01:01Z,42.805,6.029,13.3024,4.60089,2470.88,2023-3-18T08:03:42Z
2023-03-18T06:04:04Z,42.805,6.029,13.3026,4.60089,2470.871,2023-3-18T08:06:45Z
2023-03-18T06:07:07Z,42.805,6.029,13.3027,4.60087,2470.894,2023-3-18T08:09:48Z
2023-03-18T06:10:10Z,42.805,6.029,13.3023,4.60090,2470.88,2023-3-18T08:12:51Z
2023-03-18T06:13:13Z,42.805,6.029,13.3023,4.60101,2470.871,2023-3-18T08:15:55Z
2023-03-18T06:16:17Z,42.805,6.029,13.3024,4.60093,2470.857,2023-3-18T08:18:58Z
2023-03-18T06:19:20Z,42.805,6.029,13.3025,4.60088,2470.857,2023-3-18T08:22:01Z
2023-03-18T06:22:23Z,42.805,6.029,13.3021,4.60096,2470.833,2023-3-18T08:25:04Z
2023-03-18T06:25:26Z,42.805,6.029,13.3022,4.60084,2470.88,2023-3-18T08:28:07Z
2023-03-18T06:28:29Z,42.805,6.029,13.3019,4.60088,2470.917,2023-3-18T08:31:10Z
2023-03-18T06:31:32Z,42.805,6.029,13.3021,4.60092,2470.904,2023-3-18T08:34:13Z
2023-03-18T06:34:35Z,42.805,6.029,13.3019,4.60090,2470.88,2023-3-18T08:37:16Z
2023-03-18T06:37:38Z,42.805,6.029,13.3025,4.60091,2470.847,2023-3-18T08:40:19Z
2023-03-18T06:40:41Z,42.805,6.029,13.3024,4.60087,2470.833,2023-3-18T08:43:22Z
2023-03-18T06:43:44Z,42.805,6.029,13.3019,4.60090,2470.857,2023-3-18T08:46:25Z
2023-03-18T06:46:47Z,42.805,6.029,13.3023,4.60086,2470.871,2023-3-18T08:49:28Z
2023-03-18T06:49:50Z,42.805,6.029,13.3018,4.60092,2470.857,2023-3-18T08:52:32Z
2023-03-18T06:52:53Z,42.805,6.029,13.3028,4.60094,2470.88,2023-3-18T08:55:35Z
2023-03-18T06:55:57Z,42.805,6.029,13.3025,4.60091,2470.88,2023-3-18T08:58:38Z
2023-03-18T06:59:00Z,42.805,6.029,13.3024,4.60090,2470.88,2023-3-18T09:01:41Z
2023-03-18T07:02:03Z,42.805,6.029,13.3025,4.60087,2470.857,2023-3-18T09:04:44Z
2023-03-18T07:05:06Z,42.805,6.029,13.3021,4.60085,2470.904,2023-3-18T09:07:47Z
2023-03-18T07:08:09Z,42.805,6.029,13.3021,4.60085,2470.847,2023-3-18T09:10:50Z
2023-03-18T07:11:12Z,42.805,6.029,13.3026,4.60086,2470.857,2023-3-18T09:13:53Z
2023-03-18T07:14:15Z,42.805,6.029,13.3023,4.60091,2470.833,2023-3-18T09:16:56Z
2023-03-18T07:17:18Z,42.805,6.029,13.3026,4.60089,2470.857,2023-3-18T09:19:59Z
2023-03-18T07:20:21Z,42.805,6.029,13.3020,4.60088,2470.88,2023-3-18T09:23:02Z
2023-03-18T07:23:24Z,42.805,6.029,13.3024,4.60094,2470.871,2023-3-18T09:26:05Z
2023-03-18T07:26:27Z,42.805,6.029,13.3019,4.60087,2470.871,2023-3-18T09:29:08Z
2023-03-18T07:29:30Z,42.805,6.029,13.3018,4.60094,2470.833,2023-3-18T09:32:12Z
2023-03-18T07:32:33Z,42.805,6.029,13.3024,4.60089,2470.833,2023-3-18T09:35:15Z
2023-03-18T07:35:37Z,42.805,6.029,13.3024,4.60086,2470.833,2023-3-18T09:38:18Z
2023-03-18T07:38:40Z,42.805,6.029,13.3021,4.60084,2470.847,2023-3-18T09:41:21Z
2023-03-18T07:41:43Z,42.805,6.029,13.3021,4.60085,2470.81,2023-3-18T09:44:24Z
2023-03-18T07:44:46Z,42.805,6.029,13.3024,4.60084,2470.833,2023-3-18T09:47:27Z
2023-03-18T07:47:49Z,42.805,6.029,13.3024,4.60087,2470.847,2023-3-18T09:50:30Z
2023-03-18T07:50:52Z,42.805,6.029,13.3025,4.60092,2470.81,2023-3-18T09:53:33Z
2023-03-18T07:53:55Z,42.805,6.029,13.3024,4.60087,2470.81,2023-3-18T09:56:36Z
2023-03-18T07:56:58Z,42.805,6.029,13.3020,4.60091,2470.833,2023-3-18T09:59:39Z
2023-03-18T08:00:01Z,42.805,6.029,13.3020,4.60084,2470.857,2023-3-18T10:02:42Z
2023-03-18T08:03:04Z,42.805,6.029,13.3021,4.60087,2470.857,2023-3-18T10:05:45Z
2023-03-18T08:06:07Z,42.805,6.029,13.3019,4.60096,2470.81,2023-3-18T10:08:49Z
2023-03-18T08:09:10Z,42.805,6.029,13.3023,4.60094,2470.81,2023-3-18T10:11:52Z
2023-03-18T08:12:14Z,42.805,6.029,13.3026,4.60090,2470.81,2023-3-18T10:14:55Z
2023-03-18T08:15:17Z,42.805,6.029,13.3021,4.60091,2470.787,2023-3-18T10:17:58Z
2023-03-18T08:18:20Z,42.805,6.029,13.3023,4.60084,2470.81,2023-3-18T10:21:01Z
2023-03-18T08:21:23Z,42.805,6.029,13.3022,4.60088,2470.824,2023-3-18T10:24:04Z
2023-03-18T08:24:26Z,42.805,6.029,13.3029,4.60089,2470.8,2023-3-18T10:27:07Z
2023-03-18T08:27:29Z,42.805,6.029,13.3024,4.60087,2470.81,2023-3-18T10:30:10Z
2023-03-18T08:30:32Z,42.805,6.029,13.3023,4.60087,2470.847,2023-3-18T10:33:13Z
2023-03-18T08:33:35Z,42.805,6.029,13.3022,4.60092,2470.81,2023-3-18T10:36:16Z
2023-03-18T08:36:38Z,42.805,6.029,13.3026,4.60091,2470.81,2023-3-18T10:39:19Z
2023-03-18T08:39:41Z,42.805,6.029,13.3022,4.60092,2470.833,2023-3-18T10:42:22Z
2023-03-18T08:42:44Z,42.805,6.029,13.3019,4.60096,2470.871,2023-3-18T10:45:26Z
2023-03-18T08:45:47Z,42.805,6.029,13.3025,4.60097,2470.833,2023-3-18T10:48:29Z
2023-03-18T08:48:51Z,42.805,6.029,13.3023,4.60088,2470.824,2023-3-18T10:51:32Z
2023-03-18T08:51:54Z,42.805,6.029,13.3029,4.60091,2470.8,2023-3-18T10:54:35Z
2023-03-18T08:54:57Z,42.805,6.029,13.3024,4.60099,2470.787,2023-3-18T10:57:38Z
2023-03-18T08:58:00Z,42.805,6.029,13.3028,4.60099,2470.763,2023-3-18T11:00:41Z
2023-03-18T09:01:03Z,42.805,6.029,13.3026,4.60093,2470.787,2023-3-18T11:03:44Z
2023-03-18T09:04:06Z,42.805,6.029,13.3024,4.60098,2470.8,2023-3-18T11:06:47Z
2023-03-18T09:07:09Z,42.805,6.029,13.3026,4.60100,2470.726,2023-3-18T11:09:50Z
2023-03-18T09:10:12Z,42.805,6.029,13.3035,4.60097,2470.8,2023-3-18T11:12:53Z
2023-03-18T09:13:15Z,42.805,6.029,13.3025,4.60097,2470.777,2023-3-18T11:15:56Z
2023-03-18T09:16:18Z,42.805,6.029,13.3028,4.60093,2470.754,2023-3-18T11:18:59Z
2023-03-18T09:19:21Z,42.805,6.029,13.3021,4.60102,2470.787,2023-3-18T11:22:03Z
2023-03-18T09:22:24Z,42.805,6.029,13.3024,4.60093,2470.8,2023-3-18T11:25:06Z
2023-03-18T09:25:28Z,42.805,6.029,13.3027,4.60090,2470.763,2023-3-18T11:28:09Z
2023-03-18T09:28:31Z,42.805,6.029,13.3033,4.60101,2470.8,2023-3-18T11:31:12Z
2023-03-18T09:31:34Z,42.805,6.029,13.3029,4.60103,2470.777,2023-3-18T11:34:15Z
2023-03-18T09:34:37Z,42.805,6.029,13.3024,4.60092,2470.777,2023-3-18T11:37:18Z
2023-03-18T09:37:40Z,42.805,6.029,13.3028,4.60099,2470.717,2023-3-18T11:40:21Z
2023-03-18T09:40:43Z,42.805,6.029,13.3026,4.60103,2470.763,2023-3-18T11:43:24Z
2023-03-18T09:43:46Z,42.805,6.029,13.3028,4.60103,2470.787,2023-3-18T11:46:27Z
2023-03-18T09:46:49Z,42.805,6.029,13.3026,4.60095,2470.777,2023-3-18T11:49:30Z
2023-03-18T09:49:52Z,42.805,6.029,13.3025,4.60099,2470.787,2023-3-18T11:52:33Z
2023-03-18T09:52:55Z,42.805,6.029,13.3023,4.60096,2470.8,2023-3-18T11:55:36Z
2023-03-18T09:55:58Z,42.805,6.029,13.3027,4.60099,2470.754,2023-3-18T11:58:40Z
2023-03-18T09:59:01Z,42.805,6.029,13.3025,4.60102,2470.777,2023-3-18T12:01:43Z
2023-03-18T10:02:05Z,42.805,6.029,13.3021,4.60104,2470.763,2023-3-18T12:04:46Z
2023-03-18T10:05:08Z,42.805,6.029,13.3029,4.60104,2470.763,2023-3-18T12:07:49Z
2023-03-18T10:08:11Z,42.805,6.029,13.3026,4.60099,2470.74,2023-3-18T12:10:52Z
2023-03-18T10:11:14Z,42.805,6.029,13.3023,4.60090,2470.73,2023-3-18T12:13:55Z
2023-03-18T10:14:17Z,42.805,6.029,13.3024,4.60102,2470.763,2023-3-18T12:16:58Z
2023-03-18T10:17:20Z,42.805,6.029,13.3028,4.60101,2470.74,2023-3-18T12:20:01Z
2023-03-18T10:20:23Z,42.805,6.029,13.3026,4.60103,2470.717,2023-3-18T12:23:04Z
2023-03-18T10:23:26Z,42.805,6.029,13.3033,4.60110,2470.717,2023-3-18T12:26:07Z
2023-03-18T10:26:29Z,42.805,6.029,13.3031,4.60107,2470.679,2023-3-18T12:29:10Z
2023-03-18T10:29:32Z,42.805,6.029,13.3029,4.60108,2470.717,2023-3-18T12:32:14Z
2023-03-18T10:32:35Z,42.805,6.029,13.3028,4.60104,2470.717,2023-3-18T12:35:17Z
2023-03-18T10:35:38Z,42.805,6.029,13.3033,4.60107,2470.763,2023-3-18T12:38:20Z
2023-03-18T10:38:42Z,42.805,6.029,13.3029,4.60097,2470.717,2023-3-18T12:41:23Z
2023-03-18T10:41:45Z,42.805,6.029,13.3029,4.60097,2470.717,2023-3-18T12:44:26Z
2023-03-18T10:44:48Z,42.805,6.029,13.3030,4.60101,2470.73,2023-3-18T12:47:29Z
2023-03-18T10:47:51Z,42.805,6.029,13.3035,4.60111,2470.754,2023-3-18T12:50:32Z
2023-03-18T10:50:54Z,42.805,6.029,13.3028,4.60104,2470.754,2023-3-18T12:53:35Z
2023-03-18T10:53:57Z,42.805,6.029,13.3028,4.60094,2470.707,2023-3-18T12:56:38Z
2023-03-18T10:57:00Z,42.805,6.029,13.3029,4.60107,2470.67,2023-3-18T12:59:41Z
2023-03-18T11:00:03Z,42.805,6.029,13.3028,4.60102,2470.693,2023-3-18T13:02:44Z
2023-03-18T11:03:06Z,42.805,6.029,13.3025,4.60098,2470.707,2023-3-18T13:05:47Z
2023-03-18T11:06:09Z,42.805,6.029,13.3028,4.60105,2470.717,2023-3-18T13:08:51Z
2023-03-18T11:09:12Z,42.805,6.029,13.3029,4.60100,2470.726,2023-3-18T13:11:54Z
2023-03-18T11:12:15Z,42.805,6.029,13.3031,4.60103,2470.693,2023-3-18T13:14:57Z
2023-03-18T11:15:19Z,42.805,6.029,13.3031,4.60112,2470.707,2023-3-18T13:18:00Z
2023-03-18T11:18:22Z,42.805,6.029,13.3031,4.60104,2470.73,2023-3-18T13:21:03Z
2023-03-18T11:21:25Z,42.805,6.029,13.3026,4.60111,2470.707,2023-3-18T13:24:06Z
2023-03-18T11:24:28Z,42.805,6.029,13.3029,4.60093,2470.693,2023-3-18T13:27:09Z
2023-03-18T11:27:31Z,42.805,6.029,13.3031,4.60111,2470.693,2023-3-18T13:30:12Z
2023-03-18T11:30:34Z,42.805,6.029,13.3027,4.60111,2470.707,2023-3-18T13:33:15Z
2023-03-18T11:33:37Z,42.805,6.029,13.3039,4.60113,2470.67,2023-3-18T13:36:18Z
2023-03-18T11:36:40Z,42.805,6.029,13.3034,4.60110,2470.693,2023-3-18T13:39:21Z
2023-03-18T11:39:43Z,42.805,6.029,13.3029,4.60102,2470.707,2023-3-18T13:42:24Z
2023-03-18T11:42:46Z,42.805,6.029,13.3032,4.60118,2470.693,2023-3-18T13:45:28Z
2023-03-18T11:45:49Z,42.805,6.029,13.3025,4.60097,2470.73,2023-3-18T13:48:31Z
2023-03-18T11:48:53Z,42.805,6.029,13.3030,4.60113,2470.707,2023-3-18T13:51:34Z
2023-03-18T11:51:56Z,42.805,6.029,13.3032,4.60113,2470.693,2023-3-18T13:54:37Z
2023-03-18T11:54:59Z,42.805,6.029,13.3027,4.60107,2470.693,2023-3-18T13:57:40Z
2023-03-18T11:58:02Z,42.805,6.029,13.3028,4.60104,2470.693,2023-3-18T14:00:43Z
2023-03-18T12:01:05Z,42.805,6.029,13.3031,4.60105,2470.684,2023-3-18T14:03:46Z
2023-03-18T12:04:08Z,42.805,6.029,13.3026,4.60108,2470.67,2023-3-18T14:06:49Z
2023-03-18T12:07:11Z,42.805,6.029,13.3029,4.60104,2470.684,2023-3-18T14:09:52Z
2023-03-18T12:10:14Z,42.805,6.029,13.3029,4.60106,2470.707,2023-3-18T14:12:55Z
2023-03-18T12:13:17Z,42.805,6.029,13.3033,4.60104,2470.67,2023-3-18T14:15:58Z
2023-03-18T12:16:20Z,42.805,6.029,13.3031,4.60112,2470.707,2023-3-18T14:19:02Z
2023-03-18T12:19:23Z,42.805,6.029,13.3031,4.60123,2470.693,2023-3-18T14:22:05Z
2023-03-18T12:22:26Z,42.805,6.029,13.3029,4.60093,2470.693,2023-3-18T14:25:08Z
2023-03-18T12:25:30Z,42.805,6.029,13.3031,4.60100,2470.707,2023-3-18T14:28:11Z
2023-03-18T12:28:33Z,42.805,6.029,13.3033,4.60110,2470.67,2023-3-18T14:31:14Z
2023-03-18T12:31:36Z,42.805,6.029,13.3028,4.60103,2470.707,2023-3-18T14:34:17Z
2023-03-18T12:34:39Z,42.805,6.029,13.3026,4.60102,2470.707,2023-3-18T14:37:20Z
2023-03-18T12:37:42Z,42.805,6.029,13.3029,4.60102,2470.707,2023-3-18T14:40:23Z
2023-03-18T12:40:45Z,42.805,6.029,13.3034,4.60104,2470.693,2023-3-18T14:43:26Z
2023-03-18T12:43:48Z,42.805,6.029,13.3029,4.60108,2470.67,2023-3-18T14:46:29Z
2023-03-18T12:46:51Z,42.805,6.029,13.3026,4.60112,2470.67,2023-3-18T14:49:32Z
2023-03-18T12:49:54Z,42.805,6.029,13.3029,4.60107,2470.684,2023-3-18T14:52:35Z
2023-03-18T12:52:57Z,42.805,6.029,13.3034,4.60104,2470.693,2023-3-18T14:55:39Z
2023-03-18T12:56:00Z,42.805,6.029,13.3031,4.60104,2470.707,2023-3-18T14:58:42Z
2023-03-18T12:59:03Z,42.805,6.029,13.3031,4.60113,2470.707,2023-3-18T15:01:45Z
2023-03-18T13:02:07Z,42.805,6.029,13.3036,4.60104,2470.693,2023-3-18T15:04:48Z
2023-03-18T13:05:10Z,42.805,6.029,13.3032,4.60107,2470.73,2023-3-18T15:07:51Z
2023-03-18T13:08:13Z,42.805,6.029,13.3034,4.60110,2470.707,2023-3-18T15:10:54Z
2023-03-18T13:11:16Z,42.805,6.029,13.3032,4.60104,2470.717,2023-3-18T15:13:57Z
2023-03-18T13:14:19Z,42.805,6.029,13.3033,4.60111,2470.73,2023-3-18T15:17:00Z
2023-03-18T13:17:22Z,42.805,6.029,13.3039,4.60114,2470.693,2023-3-18T15:20:03Z
2023-03-18T13:20:25Z,42.805,6.029,13.3043,4.60119,2470.693,2023-3-18T15:23:06Z
2023-03-18T13:23:28Z,42.805,6.029,13.3029,4.60105,2470.684,2023-3-18T15:26:09Z
2023-03-18T13:26:31Z,42.805,6.029,13.3029,4.60110,2470.693,2023-3-18T15:29:13Z
2023-03-18T13:29:34Z,42.805,6.029,13.3031,4.60110,2470.693,2023-3-18T15:32:16Z
2023-03-18T13:32:37Z,42.805,6.029,13.3034,4.60102,2470.684,2023-3-18T15:35:19Z
2023-03-18T13:35:40Z,42.805,6.029,13.3031,4.60106,2470.717,2023-3-18T15:38:22Z
2023-03-18T13:38:44Z,42.805,6.029,13.3029,4.60094,2470.661,2023-3-18T15:41:25Z
2023-03-18T13:41:47Z,42.805,6.029,13.3027,4.60107,2470.693,2023-3-18T15:44:28Z
2023-03-18T13:44:50Z,42.805,6.029,13.3024,4.60104,2470.717,2023-3-18T15:47:31Z
2023-03-18T13:47:53Z,42.805,6.029,13.3031,4.60110,2470.73,2023-3-18T15:50:34Z
2023-03-18T13:50:56Z,42.805,6.029,13.3032,4.60106,2470.73,2023-3-18T15:53:37Z
2023-03-18T13:53:59Z,42.805,6.029,13.3026,4.60098,2470.693,2023-3-18T15:56:40Z
2023-03-18T13:57:02Z,42.805,6.029,13.3031,4.60101,2470.693,2023-3-18T15:59:43Z
2023-03-18T14:00:05Z,42.805,6.029,13.3025,4.60097,2470.717,2023-3-18T16:02:46Z
2023-03-18T14:03:08Z,42.805,6.029,13.3028,4.60104,2470.693,2023-3-18T16:05:50Z
2023-03-18T14:06:11Z,42.805,6.029,13.3026,4.60100,2470.693,2023-3-18T16:08:53Z
2023-03-18T14:09:14Z,42.805,6.029,13.3029,4.60112,2470.73,2023-3-18T16:11:56Z
2023-03-18T14:12:18Z,42.805,6.029,13.3029,4.60092,2470.717,2023-3-18T16:14:59Z
2023-03-18T14:15:21Z,42.805,6.029,13.3030,4.60102,2470.693,2023-3-18T16:18:02Z
2023-03-18T14:18:24Z,42.805,6.029,13.3032,4.60110,2470.717,2023-3-18T16:21:05Z
2023-03-18T14:21:27Z,42.805,6.029,13.3027,4.60102,2470.717,2023-3-18T16:24:08Z
2023-03-18T14:24:30Z,42.805,6.029,13.3027,4.60108,2470.74,2023-3-18T16:27:11Z
2023-03-18T14:27:33Z,42.805,6.029,13.3033,4.60114,2470.717,2023-3-18T16:30:14Z
2023-03-18T14:30:36Z,42.805,6.029,13.3030,4.60099,2470.717,2023-3-18T16:33:17Z
2023-03-18T14:33:39Z,42.805,6.029,13.3029,4.60100,2470.754,2023-3-18T16:36:20Z
2023-03-18T14:36:42Z,42.805,6.029,13.3026,4.60103,2470.717,2023-3-18T16:39:23Z
2023-03-18T14:39:45Z,42.805,6.029,13.3035,4.60097,2470.754,2023-3-18T16:42:27Z
2023-03-18T14:42:48Z,42.805,6.029,13.3030,4.60099,2470.74,2023-3-18T16:45:30Z
2023-03-18T14:45:51Z,42.805,6.029,13.3026,4.60106,2470.754,2023-3-18T16:48:33Z
2023-03-18T14:48:54Z,42.805,6.029,13.3029,4.60097,2470.73,2023-3-18T16:51:36Z
2023-03-18T14:51:58Z,42.805,6.029,13.3027,4.60099,2470.73,2023-3-18T16:54:39Z
2023-03-18T14:55:01Z,42.805,6.029,13.3031,4.60104,2470.717,2023-3-18T16:57:42Z
2023-03-18T14:58:04Z,42.805,6.029,13.3025,4.60097,2470.73,2023-3-18T17:00:45Z
2023-03-18T15:01:07Z,42.805,6.029,13.3027,4.60106,2470.74,2023-3-18T17:03:48Z
2023-03-18T15:04:10Z,42.805,6.029,13.3031,4.60107,2470.726,2023-3-18T17:06:51Z
2023-03-18T15:07:13Z,42.805,6.029,13.3031,4.60103,2470.74,2023-3-18T17:09:54Z
2023-03-18T15:10:16Z,42.805,6.029,13.3026,4.60112,2470.74,2023-3-18T17:12:57Z
2023-03-18T15:13:19Z,42.805,6.029,13.3026,4.60099,2470.754,2023-3-18T17:16:00Z